Probability
0 0 0 0 0 0 0 0 0 0 0 0 0 0 0 0 0 0 0 0 0 0 0 0 0 0 0 0 0 0 0 0 0 0 0 0 0 0 0 0 0 0 0
0 0 0 0 0 0 0 0 0 0 0 0 0 0 0 0 0 0 0 0 0 0 0 0 0 0 0 0 0 0 0 0 0 0 0 0 0 0 0 0 0 0 0
0 0 0 0 0 0 0 0 0 0 0 0 0 0 0 0 0 0 0 0 0 0 0 0 0 0 0 0 0 0 0 0 0 0 0 0 0 0 0 0 0 0 0
0 0 0 0 0 0 0 0 0 0 0 0 0 0 0 0 0 0 0 0 0 0 0 0 0 0 0 0 0 0 0 0 0 0 0 0 0 0 0 0 0 0 0
0 0 0 0 0 0 0 0 0 0 0 0 0 0 0 0 0 0 0 0 0 0 0 0 0 0 0 0 0 0 0 0 0 0 0 0 0 0 0 0 0 0 0
0 0 0 0 0 0 0 0 0 0 0 0 0 0 0 0 0 0 0 0 0 0 0 0 0 0 0 0 0 0 0 0 0 0 0 0 0 0 0 0 0 0 0
0 0 0 0 0 0 0 0 0 0 0 0 0 0 0 0 0 0 0 0 0 0 0 0 0 0 0 0 0 0 0 0 0 0 0 0 0 0 0 0 0 0 0
0 0 0 0 0 0 0 0 0 0 0 0 0 0 0 0 0 0 0 0 0 0 0 0 0 0 0 0 0 0 0 0 0 0 0 0 0 0 0 0 0 0 0
0 0 0 0 0 0 0 0 0 0 0 0 0 0 0 0 0 0 0 0 0 0 0 0 0 0 0 0 0 0 0 0 0 0 0 0 0 0 0 0 0 0 0
0 0 0 0 0 0 0 0 0 0 0 0 0 0 0 0 0 0 0 0 0 0 0 0 0 0 0 0 0 0 0 0 0 0 0 0 0 0 0 0 0 0 0
0 0 0 0 0 0 0 0 0 0 0 0 0 0 0 0 0 0 0 0 0 0 0 0 0 0 0 0 0 0 0 0 0 0 0 0 0 0 0 0 0 0 0
0 0 0 0 0 0 0 0 0 0 0 0 0 0 0 0 0 0 0 0 0 0 0 0 0 0 0 0 0 0 0 0 0 0 0 0 0 0 0 0 0 0 0
0 0 0 0 0 0 0 0 0 0 0 0 0 0 0 0 0 0 0 0 0 0 0 0 0 0 0 0 0 0 0 0 0 0 0 0 0 0 0 0 0 0 0
0 0 0 0 0 0 0 0 0 0 0 0 0 0 0 0 0 0 0 0 0 0 0 0 0 0 0 0 0 0 0 0 0 0 0 0 0 0 0 0 0 0 0
0 0 0 0 0 0 0 0 0 0 0 0 0 0 0 0 0 0 0 0 0 0 0 0 0 0 0 0 0 0 0 0 0 0 0 0 0 0 0 0 0 0 0
0 0 0 0 0 0 0 0 0 0 0 0 0 0 0 0 0 0 0 0 0 0 0 0 0 0 0 0 0 0 0 0 0 0 0 0 0 0 0 0 0 0 0
0 0 0 0 0 0 0 0 0 0 0 0 0 0 0 0 0 0 0 0 0 0 0 0 0 0 0 0 0 0 0 0 0 0 0 0 0 0 0 0 0 0 0
0 0 0 0 0 0 0 0 0 0 0 0 0 0 0 0 0 0 0 0 0 0 0 0 0 0 0 0 0 0 0 0 0 0 0 0 0 0 0 0 0 0 0
0 0 0 0 0 0 0 0 0 0 0 0 0 0 0 0 0 0 0 0 0 0 0 0 0 0 0 0 0 0 0 0 0 0 0 0 0 0 0 0 0 0 0
0 0 0 0 0 0 0 0 0 0 0 0 0 0 0 0 0 0 0 0 0 0 0 0 0 0 0 0 0 0 0 0 0 0 0 0 0 0 0 0 0 0 0
0 0 0 0 0 0 0 0 0 0 0 0 0 0 0 0 0 0 0 0 0 0 0 0 0 0 0 0 0 0 0 0 0 0 0 0 0 0 0 0 0 0 0
0 0 0 0 0 0 0 0 0 0 0 0 0 0 0 0 0 0 0 0 0 0 0 0 0 0 0 0 0 0 0 0 0 0 0 0 0 0 0 0 0 0 0
0 0 0 0 0 0 0 0 0 0 0 0 0 0 0 0 0 0 0 0 0 0 0 0 0 0 0 0 0 0 0 0 0 0 0 0 0 0 0 0 0 0 0
0 0 0 0 0 0 0 0 0 0 0 0 0 0 0 0 0 0 0 0 0 0 0 0 0 0 0 0 0 0 0 0 0 0 0 0 0 0 0 0 0 0 0
0 0 0 0 0 0 0 0 0 0 0 0 0 0 0 0 0 0 0 0 0 0 0 0 0 0 0 0 0 0 0 0 0 0 0 0 0 0 0 0 0 0 0
0 0 0 0 0 0 0 0 0 0 0 0 0 0 0 0 0 0 0 0 0 0 0 0 0 0 0 0 0 0 0 0 0 0 0 0 0 0 0 0 0 0 0
Wind_Speed
7 6 6 5 5 4 4 4 3 3 3 3 3 3 4 4 4 5 6 6 7 8 7 9 10 10 8 8 8 8 9 9 14 11 6 6 8 9 8 9 10 11 11
6 6 6 5 5 5 5 4 4 3 3 3 3 4 4 5 5 5 7 7 8 9 9 9 10 8 10 9 8 9 9 10 11 15 8 5 8 9 8 9 8 8 9
6 6 6 6 6 6 5 5 5 4 4 4 4 4 5 5 6 6 7 7 8 9 9 9 10 9 10 8 9 9 8 8 9 11 11 6 6 4 6 7 8 8 9
6 6 7 7 6 6 5 5 5 5 5 5 5 5 5 6 6 6 6 8 8 9 9 9 9 9 10 9 8 9 8 9 9 10 11 8 6 3 4 6 7 7 8
6 7 7 6 6 6 6 6 6 5 5 6 6 6 6 5 5 6 7 8 9 9 9 9 10 9 11 10 8 9 8 9 8 9 10 8 6 4 6 6 8 6 6
6 6 6 6 6 6 6 6 6 6 6 6 6 6 7 5 8 11 9 8 8 9 10 10 9 9 10 14 16 16 14 11 10 9 10 11 10 8 6 6 6 5 6
5 5 5 5 6 6 6 6 6 6 6 6 6 7 8 9 11 12 11 9 9 9 10 9 8 7 9 10 12 15 14 16 17 12 13 13 11 8 6 7 7 7 6
4 5 5 5 6 6 6 6 7 6 6 7 7 8 9 9 12 13 12 10 9 9 9 10 10 10 8 9 9 10 9 9 11 10 11 11 10 7 6 7 6 4 2
4 5 5 6 6 7 7 8 7 7 8 7 7 8 9 10 13 14 13 7 8 9 9 9 9 10 11 12 10 10 10 8 9 11 12 12 13 12 7 4 4 4 3
5 5 5 5 6 7 8 8 7 7 8 8 8 8 9 10 12 14 13 6 8 8 7 7 8 9 12 13 9 9 10 8 5 5 7 8 7 6 6 5 4 4 2
5 5 6 6 6 7 7 7 8 8 8 8 9 9 8 9 11 13 13 6 7 8 7 7 6 10 13 13 11 8 10 9 6 5 5 4 3 2 2 1 1 2 2
5 6 6 6 6 6 7 7 7 8 9 9 9 9 7 6 8 11 13 12 11 9 8 7 7 11 13 13 10 9 11 8 4 4 3 3 2 2 1 1 2 2 2
5 6 6 7 6 6 7 8 7 7 7 7 7 8 8 6 7 12 12 13 13 9 7 10 12 13 12 9 8 8 6 4 3 3 3 2 2 1 1 1 2 3 4
6 7 6 7 7 7 6 6 6 7 7 8 8 9 9 8 7 6 6 7 8 8 7 7 9 9 7 5 4 4 3 2 2 2 2 1 1 1 1 1 1 1 2
6 6 7 6 7 8 7 7 8 8 9 10 9 9 9 10 10 13 11 8 7 7 7 6 5 4 3 3 2 2 2 2 1 1 1 1 0 0 1 1 0 0 1
6 6 5 6 6 7 8 9 11 13 15 16 16 15 11 14 17 17 16 15 13 11 7 5 4 4 3 3 3 3 2 2 2 1 1 0 0 0 0 1 1 1 1
5 6 6 6 6 7 7 8 10 10 10 12 13 14 14 14 15 15 13 11 10 8 5 4 3 3 3 2 2 2 2 2 2 1 1 1 0 0 0 1 1 1 1
6 6 6 6 6 7 7 8 8 10 10 8 9 12 12 12 12 11 10 7 4 2 2 2 2 2 2 2 2 2 2 2 1 1 1 1 0 0 1 1 1 1 1
6 5 5 6 7 7 8 8 8 10 10 9 8 7 8 9 9 8 6 3 3 2 1 1 2 2 1 1 1 1 1 1 1 1 1 1 0 0 1 1 1 1 1
5 7 7 7 7 7 7 7 8 8 9 8 8 7 5 5 4 4 3 2 1 1 1 1 1 1 1 1 1 1 1 1 1 1 1 1 1 0 1 1 1 1 1
5 6 7 7 6 7 7 7 8 8 8 8 7 7 7 4 4 3 2 2 2 1 1 1 1 1 1 1 1 0 0 1 1 1 1 1 1 0 0 0 1 1 1
5 5 5 6 6 6 7 7 7 8 8 8 6 5 6 3 3 2 2 2 2 2 1 1 1 1 1 1 1 1 0 0 0 0 0 0 0 0 0 1 1 1 1
5 6 6 6 6 7 7 7 7 7 7 6 5 4 3 3 3 2 2 2 2 2 1 1 1 1 1 1 1 1 1 1 1 1 1 1 1 1 1 1 2 2 2
5 6 6 6 6 6 6 6 6 6 6 5 5 4 3 3 3 3 2 2 2 2 2 1 1 2 2 2 1 1 1 1 1 1 2 2 2 2 1 1 2 2 2
4 5 5 6 6 6 6 6 6 6 5 5 4 4 4 3 3 3 3 2 3 3 3 2 2 2 3 3 3 2 3 3 2 1 1 2 2 2 2 2 2 2 2
4 5 5 5 5 5 5 6 6 6 5 5 4 4 4 4 3 3 3 3 3 3 3 3 4 4 4 4 4 5 5 5 4 4 3 2 3 3 3 3 4 3 3
Wind_Direction
67 70 72 66 63 64 58 45 27 14 358 337 321 311 302 294 287 276 271 270 263 259 250 248 250 248 246 241 235 235 237 242 264 273 257 246 226 232 234 234 239 240 242
67 70 68 63 58 54 47 33 19 10 358 343 329 313 304 298 292 284 281 277 272 269 265 261 259 256 251 249 244 241 241 238 253 271 269 248 236 236 238 236 235 235 240
67 71 65 55 47 39 30 20 13 4 355 347 333 317 308 302 297 291 288 284 279 276 274 270 268 263 259 256 254 253 251 248 248 262 271 259 249 231 235 241 242 243 242
62 62 55 43 35 27 18 12 7 359 350 341 330 318 309 304 296 297 293 289 284 280 278 274 272 267 265 265 261 259 259 257 253 258 266 265 251 220 225 241 245 236 241
58 54 44 33 26 19 13 5 358 352 344 335 325 319 311 303 299 301 296 288 286 284 279 274 271 268 267 266 265 266 264 263 261 260 264 266 253 223 230 229 243 244 238
56 48 34 23 16 10 1 352 348 343 338 331 322 315 309 300 299 297 294 289 284 280 280 279 275 269 267 266 265 265 263 262 264 263 265 263 263 250 242 232 238 240 250
55 43 27 13 4 356 347 344 341 334 327 321 314 308 302 299 302 300 294 288 281 278 279 281 279 273 268 273 273 271 267 263 261 263 267 267 271 263 248 242 235 235 246
47 34 17 3 353 344 340 336 331 323 318 312 308 306 301 299 303 301 300 287 281 278 278 278 280 281 276 275 277 274 271 269 268 262 264 271 275 274 250 248 245 240 238
30 15 1 352 343 337 333 328 324 319 313 309 301 300 297 298 301 301 301 292 284 284 282 278 277 281 282 280 277 276 277 275 273 266 267 272 275 274 261 244 225 224 237
7 351 343 341 332 324 319 316 313 308 301 301 296 291 288 290 295 298 298 287 287 288 286 279 272 273 282 283 276 274 277 282 281 282 279 280 279 276 267 250 238 229 220
345 334 332 331 320 310 307 304 304 302 300 297 294 290 284 283 292 296 295 287 284 288 288 287 283 282 284 284 280 273 275 284 283 279 279 282 286 287 290 298 286 246 227
336 328 323 319 313 308 305 303 301 299 298 297 296 297 290 284 286 294 295 290 288 283 284 286 287 290 290 288 285 281 283 282 275 272 272 282 295 308 342 25 48 45 36
327 317 312 311 306 305 303 303 303 297 292 294 295 295 297 296 293 294 293 292 289 283 281 283 288 290 291 287 286 289 288 276 270 269 277 294 313 325 3 58 75 80 68
317 315 314 313 311 309 300 292 290 290 289 289 290 292 295 295 294 296 294 294 288 284 283 283 284 286 289 292 290 291 285 281 277 278 290 308 330 339 357 32 97 108 98
313 309 311 308 306 305 296 286 285 276 270 281 285 286 289 291 294 299 298 291 287 282 287 285 282 285 285 291 299 306 306 300 288 278 275 289 313 2 26 31 49 95 119
310 311 309 305 303 299 300 297 284 280 284 281 279 279 281 284 294 297 295 291 289 284 278 272 276 279 283 289 297 305 313 316 309 294 281 272 281 10 63 62 75 98 110
297 299 298 297 297 298 299 300 304 302 290 291 290 289 287 293 297 299 300 297 293 284 267 265 271 277 282 288 296 301 306 320 325 325 342 5 34 70 97 99 99 99 102
290 287 286 289 291 291 290 290 290 294 299 296 297 297 298 299 302 306 307 301 290 297 281 282 290 295 296 301 311 321 324 334 348 357 9 12 16 149 143 139 143 151 150
291 290 290 290 288 285 285 285 283 282 283 288 292 294 302 306 311 319 318 292 278 283 295 298 301 304 312 322 331 335 333 343 356 356 9 10 343 203 171 165 157 152 178
283 288 292 291 290 288 286 284 284 283 283 283 283 288 299 296 292 309 316 303 291 290 299 303 310 314 318 327 341 349 355 5 9 9 11 10 359 342 171 181 182 183 189
291 293 290 287 285 286 286 285 285 285 283 283 282 287 290 287 283 290 297 301 297 289 289 294 300 308 319 324 332 343 349 354 360 360 359 357 359 14 60 153 160 163 152
287 288 289 289 289 288 288 287 285 285 287 286 286 296 300 293 285 284 289 299 308 307 302 289 286 306 310 302 290 271 246 263 308 324 327 315 301 294 167 157 162 169 168
286 289 290 289 289 290 287 285 286 285 286 286 287 288 291 289 288 286 288 294 297 297 300 290 278 295 319 318 312 291 261 252 259 247 227 221 215 210 203 192 185 189 187
287 289 291 293 294 293 293 293 292 290 289 289 287 285 285 286 286 286 289 290 290 290 294 288 274 267 281 296 299 299 298 293 276 242 226 215 209 204 200 201 207 201 195
288 289 291 293 294 295 295 295 295 294 292 288 286 284 283 283 282 280 279 277 276 276 279 279 270 264 265 271 275 276 274 277 271 244 221 213 205 203 202 205 204 198 194
288 289 290 291 291 293 293 294 295 295 292 291 287 284 282 279 277 275 273 269 269 269 269 267 260 262 266 268 265 265 260 255 245 222 210 206 203 205 199 203 203 202 198